Weather in Spas-Demensk

Russia / Kaluga Oblast     54°24′35″N   34°01′08″E
temp.,
°C
wind,
m/s
gust,
m/s
humid.,
%
clouds,
%
prec.,
mm/h
press.,
hPa
HPBL,
m
9 march, tue
tue900:00−11nnw279659 0.0 1013193
03:00−12nnw269678 0.1 1015205
06:00−14nnw249791 0.0 1016103
09:00−13nnw369387 0.1 1018301
12:00−9nnw357991 0.0 1019785
15:00−8nw357795 0.1 10201026
18:00−10nw2687100 0.1 1021278
21:00−13nw229396 0.1 102321
10 march, wed
wed1000:00−15wnw229535 0.0 102521
03:00−16nw119648 0.0 102520
06:00−15ene1195100 0.0 102524
09:00−13ese2394100 0.8 1026204
12:00−11ese3491100 1.1 1027386
15:00−10e4690100 1.5 1027465
18:00−12e3791100 0.4 1027443
21:00−17e389172 0.5 1030203
11 march, thu
thu1100:00−20ese26940 0.0 1032115
03:00−21ese239514 0.0 103378
06:00−23ese249155 0.0 103378
09:00−20se358328 0.0 1034182
12:00−14se35770 0.0 1033290
15:00−11se36750 0.0 1032450
18:00−12se25860 0.0 1031117
21:00−16sse38860 0.0 1032184
12 march, fri
fri1200:00−17sse39930 0.0 1031196
03:00−18sse39969 0.0 1030215
06:00−17sse499787 0.0 1030245
09:00−14sse5109190 0.0 1028314
12:00−7sse6128286 0.0 1026641
15:00−5s7127693 0.0 10241041
18:00−7sse61480100 0.0 1022918
21:00−8s71686100 0.1 1021909
13 march, sat
sat1300:00−7s81691100 0.9 10191006
03:00−6s81692100 2.6 1017982
06:00−6s71690100 0.6 1016693
09:00−4ssw61291100 0.8 1017528
12:00−1ssw51092100 0.1 1017512
15:000ssw51093100 0.2 1017600
18:000s51093100 0.1 1017658
21:000s51196100 0.3 1016598